Time,TemperatureF,DewpointF,PressureIn,WindDirection,WindDirectionDegrees,WindSpeedMPH,WindSpeedGustMPH,Humidity,HourlyPrecipIn,Conditions,Clouds,dailyrainin,SoftwareType,DateUTC
2013-03-25 00:02:00,30.0,27.0,-100.00,NNE,23,9.0,12.0,89,0.00,,,0.00,,2013-03-25 04:02:00,
2013-03-25 00:12:00,30.0,27.0,-100.00,NNE,23,9.0,12.0,89,0.00,,,0.00,,2013-03-25 04:12:00,
2013-03-25 00:22:00,30.0,27.0,-100.00,NNE,23,8.0,15.0,89,0.00,,,0.00,,2013-03-25 04:22:00,
2013-03-25 00:33:00,30.0,27.0,-100.00,NNE,23,9.0,13.0,88,0.00,,,0.00,,2013-03-25 04:33:00,
2013-03-25 00:43:00,30.0,27.0,-100.00,NNE,23,9.0,13.0,88,0.00,,,0.00,,2013-03-25 04:43:00,
2013-03-25 00:52:00,31.0,28.0,-100.00,NNE,23,3.0,15.0,88,0.00,,,0.00,,2013-03-25 04:52:00,
2013-03-25 01:03:00,31.0,28.0,-100.00,NNE,23,5.0,7.0,87,0.00,,,0.00,,2013-03-25 05:03:00,
2013-03-25 01:12:00,31.0,28.0,-100.00,NNE,23,5.0,7.0,87,0.00,,,0.00,,2013-03-25 05:12:00,
2013-03-25 01:22:00,31.0,27.0,-100.00,North,0,5.0,9.0,86,0.00,,,0.00,,2013-03-25 05:22:00,
2013-03-25 01:32:00,31.0,27.0,-100.00,NNE,23,9.0,14.0,86,0.00,,,0.00,,2013-03-25 05:32:00,
2013-03-25 01:42:00,31.0,27.0,-100.00,NNE,23,9.0,14.0,86,0.00,,,0.00,,2013-03-25 05:42:00,
2013-03-25 01:52:00,31.0,27.0,-100.00,NNE,23,3.0,10.0,86,0.00,,,0.00,,2013-03-25 05:52:00,
2013-03-25 02:02:00,31.0,27.0,-100.00,NNE,23,6.0,7.0,85,0.00,,,0.00,,2013-03-25 06:02:00,
2013-03-25 02:12:00,31.0,27.0,-100.00,NNE,23,6.0,7.0,85,0.00,,,0.00,,2013-03-25 06:12:00,
2013-03-25 02:22:00,31.0,27.0,-100.00,North,0,6.0,9.0,85,0.00,,,0.00,,2013-03-25 06:22:00,
2013-03-25 02:32:00,31.0,27.0,-100.00,North,0,9.0,14.0,85,0.00,,,0.00,,2013-03-25 06:32:00,
2013-03-25 02:42:00,31.0,27.0,-100.00,North,0,9.0,14.0,85,0.00,,,0.00,,2013-03-25 06:42:00,
2013-03-25 02:52:00,31.0,27.0,-100.00,NNE,23,6.0,10.0,86,0.00,,,0.00,,2013-03-25 06:52:00,
2013-03-25 03:02:00,31.0,28.0,-100.00,NE,45,7.0,9.0,87,0.00,,,0.00,,2013-03-25 07:02:00,
2013-03-25 03:12:00,31.0,28.0,-100.00,NE,45,7.0,9.0,87,0.00,,,0.00,,2013-03-25 07:12:00,
2013-03-25 03:22:00,31.0,28.0,-100.00,NNE,23,9.0,17.0,87,0.00,,,0.00,,2013-03-25 07:22:00,
2013-03-25 03:32:00,32.0,29.0,-100.00,NNE,23,7.0,8.0,87,0.00,,,0.00,,2013-03-25 07:32:00,
2013-03-25 03:42:00,32.0,29.0,-100.00,NNE,23,7.0,8.0,87,0.00,,,0.00,,2013-03-25 07:42:00,
2013-03-25 03:52:00,32.0,29.0,-100.00,North,0,9.0,16.0,88,0.00,,,0.00,,2013-03-25 07:52:00,
2013-03-25 04:02:00,32.0,29.0,-100.00,NNE,23,10.0,15.0,88,0.00,,,0.00,,2013-03-25 08:02:00,
2013-03-25 04:12:00,32.0,29.0,-100.00,NNE,23,10.0,15.0,88,0.00,,,0.00,,2013-03-25 08:12:00,
2013-03-25 04:23:00,32.0,29.0,-100.00,NNE,23,7.0,13.0,88,0.00,,,0.00,,2013-03-25 08:23:00,
2013-03-25 04:32:00,32.0,29.0,-100.00,NNE,23,9.0,14.0,87,0.00,,,0.00,,2013-03-25 08:32:00,
2013-03-25 04:43:00,32.0,29.0,-100.00,NNE,23,9.0,14.0,87,0.00,,,0.00,,2013-03-25 08:43:00,
2013-03-25 04:52:00,31.0,27.0,-100.00,NNE,23,13.0,15.0,86,0.00,,,0.00,,2013-03-25 08:52:00,
2013-03-25 05:02:00,31.0,27.0,-100.00,NNE,23,6.0,7.0,86,0.00,,,0.00,,2013-03-25 09:02:00,
2013-03-25 05:12:00,31.0,27.0,-100.00,NNE,23,6.0,7.0,86,0.00,,,0.00,,2013-03-25 09:12:00,
2013-03-25 05:22:00,31.0,27.0,-100.00,NNE,23,10.0,14.0,86,0.00,,,0.00,,2013-03-25 09:22:00,
2013-03-25 05:33:00,31.0,27.0,-100.00,NNE,23,12.0,12.0,86,0.00,,,0.00,,2013-03-25 09:33:00,
2013-03-25 05:43:00,31.0,27.0,-100.00,NNE,23,12.0,12.0,86,0.00,,,0.00,,2013-03-25 09:43:00,
2013-03-25 05:52:00,31.0,28.0,-100.00,NNE,23,9.0,16.0,87,0.00,,,0.00,,2013-03-25 09:52:00,
2013-03-25 06:03:00,31.0,28.0,-100.00,NNE,23,6.0,14.0,87,0.00,,,0.00,,2013-03-25 10:03:00,
2013-03-25 06:12:00,31.0,28.0,-100.00,NNE,23,6.0,14.0,87,0.00,,,0.00,,2013-03-25 10:12:00,
2013-03-25 06:22:00,31.0,28.0,-100.00,NNE,23,6.0,10.0,88,0.00,,,0.00,,2013-03-25 10:22:00,
2013-03-25 06:33:00,31.0,28.0,-100.00,NNE,23,8.0,13.0,87,0.00,,,0.00,,2013-03-25 10:33:00,
2013-03-25 06:42:00,31.0,28.0,-100.00,NNE,23,8.0,13.0,87,0.00,,,0.00,,2013-03-25 10:42:00,
2013-03-25 06:53:00,31.0,28.0,-100.00,NNE,23,12.0,15.0,87,0.00,,,0.00,,2013-03-25 10:53:00,
2013-03-25 07:03:00,31.0,27.0,-100.00,NNE,23,9.0,21.0,86,0.00,,,0.00,,2013-03-25 11:03:00,
2013-03-25 07:12:00,31.0,27.0,-100.00,NNE,23,7.0,14.0,86,0.00,,,0.00,,2013-03-25 11:12:00,
2013-03-25 07:23:00,31.0,27.0,-100.00,NNE,23,7.0,14.0,86,0.00,,,0.00,,2013-03-25 11:23:00,
2013-03-25 07:32:00,31.0,27.0,-100.00,NNE,23,8.0,13.0,86,0.00,,,0.00,,2013-03-25 11:32:00,
2013-03-25 07:42:00,31.0,27.0,-100.00,NNE,23,8.0,13.0,86,0.00,,,0.00,,2013-03-25 11:42:00,
2013-03-25 07:52:00,31.0,27.0,-100.00,NNE,23,8.0,14.0,86,0.00,,,0.00,,2013-03-25 11:52:00,
2013-03-25 08:02:00,31.0,27.0,-100.00,NNE,23,7.0,8.0,86,0.00,,,0.00,,2013-03-25 12:02:00,
2013-03-25 08:13:00,31.0,27.0,-100.00,NNE,23,7.0,20.0,86,0.00,,,0.00,,2013-03-25 12:13:00,
2013-03-25 08:23:00,31.0,27.0,-100.00,NNE,23,7.0,20.0,86,0.00,,,0.00,,2013-03-25 12:23:00,
2013-03-25 08:32:00,31.0,27.0,-100.00,NNE,23,5.0,8.0,86,0.00,,,0.00,,2013-03-25 12:32:00,
2013-03-25 08:42:00,31.0,27.0,-100.00,NNE,23,5.0,8.0,86,0.00,,,0.00,,2013-03-25 12:42:00,
2013-03-25 08:53:00,32.0,28.0,-100.00,North,0,6.0,12.0,85,0.00,,,0.00,,2013-03-25 12:53:00,
2013-03-25 09:02:00,32.0,28.0,-100.00,NNE,23,13.0,22.0,84,0.00,,,0.00,,2013-03-25 13:02:00,
2013-03-25 09:13:00,32.0,28.0,-100.00,NNE,23,13.0,22.0,84,0.00,,,0.00,,2013-03-25 13:13:00,
2013-03-25 09:22:00,32.0,27.0,-100.00,North,0,9.0,9.0,82,0.00,,,0.00,,2013-03-25 13:22:00,
2013-03-25 09:32:00,33.0,28.0,-100.00,North,0,9.0,22.0,81,0.00,,,0.00,,2013-03-25 13:32:00,
2013-03-25 09:42:00,33.0,28.0,-100.00,North,0,9.0,22.0,81,0.00,,,0.00,,2013-03-25 13:42:00,
2013-03-25 09:52:00,33.0,28.0,-100.00,North,0,10.0,15.0,81,0.00,,,0.00,,2013-03-25 13:52:00,
2013-03-25 10:03:00,33.0,28.0,-100.00,North,0,8.0,12.0,80,0.00,,,0.00,,2013-03-25 14:03:00,
2013-03-25 10:12:00,33.0,28.0,-100.00,North,0,8.0,12.0,80,0.00,,,0.00,,2013-03-25 14:12:00,
2013-03-25 10:22:00,34.0,28.0,-100.00,NNE,23,7.0,8.0,78,0.00,,,0.00,,2013-03-25 14:22:00,
2013-03-25 10:32:00,34.0,28.0,-100.00,NNE,23,10.0,15.0,77,0.00,,,0.00,,2013-03-25 14:32:00,
2013-03-25 10:42:00,34.0,28.0,-100.00,NNE,23,10.0,15.0,77,0.00,,,0.00,,2013-03-25 14:42:00,
2013-03-25 10:52:00,34.0,28.0,-100.00,North,0,9.0,17.0,78,0.00,,,0.00,,2013-03-25 14:52:00,
2013-03-25 11:02:00,34.0,28.0,-100.00,NNE,23,13.0,17.0,78,0.00,,,0.00,,2013-03-25 15:02:00,
2013-03-25 11:13:00,34.0,28.0,-100.00,NNE,23,13.0,17.0,78,0.00,,,0.00,,2013-03-25 15:13:00,
2013-03-25 11:23:00,34.0,28.0,-100.00,NNE,23,8.0,16.0,79,0.00,,,0.00,,2013-03-25 15:23:00,
2013-03-25 11:33:00,34.0,28.0,-100.00,NNE,23,9.0,14.0,78,0.00,,,0.00,,2013-03-25 15:33:00,
2013-03-25 11:42:00,34.0,28.0,-100.00,NNE,23,9.0,14.0,78,0.00,,,0.00,,2013-03-25 15:42:00,
2013-03-25 11:53:00,34.0,28.0,-100.00,North,0,9.0,14.0,77,0.00,,,0.00,,2013-03-25 15:53:00,
2013-03-25 12:03:00,35.0,29.0,-100.00,NNE,23,9.0,15.0,77,0.00,,,0.00,,2013-03-25 16:03:00,
2013-03-25 12:12:00,35.0,29.0,-100.00,NNE,23,9.0,15.0,77,0.00,,,0.00,,2013-03-25 16:12:00,
2013-03-25 12:23:00,35.0,29.0,-100.00,NNE,23,9.0,15.0,77,0.00,,,0.00,,2013-03-25 16:23:00,
2013-03-25 12:33:00,35.0,28.0,-100.00,NNE,23,7.0,10.0,76,0.00,,,0.00,,2013-03-25 16:33:00,
2013-03-25 12:43:00,35.0,28.0,-100.00,NNE,23,7.0,10.0,76,0.00,,,0.00,,2013-03-25 16:43:00,
2013-03-25 12:52:00,35.0,28.0,-100.00,NNW,338,9.0,13.0,74,0.00,,,0.00,,2013-03-25 16:52:00,
2013-03-25 13:03:00,35.0,28.0,-100.00,North,0,12.0,16.0,74,0.00,,,0.00,,2013-03-25 17:03:00,
2013-03-25 13:12:00,35.0,28.0,-100.00,North,0,12.0,16.0,74,0.00,,,0.00,,2013-03-25 17:12:00,
2013-03-25 13:23:00,36.0,29.0,-100.00,North,0,8.0,13.0,74,0.00,,,0.00,,2013-03-25 17:23:00,
2013-03-25 13:33:00,36.0,28.0,-100.00,NNW,338,3.0,13.0,73,0.00,,,0.00,,2013-03-25 17:33:00,
2013-03-25 13:42:00,36.0,28.0,-100.00,NNW,338,3.0,13.0,73,0.00,,,0.00,,2013-03-25 17:42:00,
2013-03-25 13:52:00,35.0,28.0,-100.00,NNW,338,8.0,13.0,74,0.00,,,0.00,,2013-03-25 17:52:00,
2013-03-25 14:03:00,35.0,28.0,-100.00,North,0,10.0,16.0,74,0.00,,,0.00,,2013-03-25 18:03:00,
2013-03-25 14:13:00,35.0,28.0,-100.00,North,0,10.0,16.0,74,0.00,,,0.00,,2013-03-25 18:13:00,
2013-03-25 14:23:00,36.0,29.0,-100.00,North,0,6.0,10.0,75,0.00,,,0.00,,2013-03-25 18:23:00,
2013-03-25 14:33:00,36.0,29.0,-100.00,NNE,23,8.0,13.0,75,0.00,,,0.00,,2013-03-25 18:33:00,
2013-03-25 14:43:00,36.0,29.0,-100.00,NNE,23,8.0,13.0,75,0.00,,,0.00,,2013-03-25 18:43:00,
2013-03-25 14:52:00,38.0,30.0,-100.00,North,0,7.0,12.0,74,0.00,,,0.00,,2013-03-25 18:52:00,
2013-03-25 15:03:00,37.0,29.0,-100.00,North,0,7.0,10.0,74,0.00,,,0.00,,2013-03-25 19:03:00,
2013-03-25 15:13:00,37.0,29.0,-100.00,North,0,7.0,10.0,74,0.00,,,0.00,,2013-03-25 19:13:00,
2013-03-25 15:23:00,38.0,30.0,-100.00,North,0,7.0,10.0,73,0.00,,,0.00,,2013-03-25 19:23:00,
2013-03-25 15:33:00,37.0,29.0,-100.00,North,0,7.0,10.0,73,0.00,,,0.00,,2013-03-25 19:33:00,
2013-03-25 15:42:00,37.0,29.0,-100.00,North,0,7.0,10.0,73,0.00,,,0.00,,2013-03-25 19:42:00,
2013-03-25 15:52:00,37.0,29.0,-100.00,North,0,5.0,8.0,72,0.00,,,0.00,,2013-03-25 19:52:00,
2013-03-25 16:02:00,38.0,29.0,-100.00,NNE,23,8.0,12.0,71,0.00,,,0.00,,2013-03-25 20:02:00,
2013-03-25 16:12:00,38.0,29.0,-100.00,NNE,23,8.0,12.0,71,0.00,,,0.00,,2013-03-25 20:12:00,
2013-03-25 16:22:00,37.0,30.0,-100.00,NNW,338,5.0,8.0,77,0.00,,,0.00,,2013-03-25 20:22:00,
2013-03-25 16:32:00,37.0,31.0,-100.00,NNW,338,8.0,12.0,79,0.00,,,0.00,,2013-03-25 20:32:00,
2013-03-25 16:42:00,37.0,31.0,-100.00,NNW,338,8.0,12.0,79,0.00,,,0.00,,2013-03-25 20:42:00,
2013-03-25 16:52:00,37.0,32.0,-100.00,NNW,338,3.0,13.0,81,0.00,,,0.00,,2013-03-25 20:52:00,
2013-03-25 17:03:00,37.0,31.0,-100.00,North,0,5.0,8.0,80,0.00,,,0.00,,2013-03-25 21:03:00,
2013-03-25 17:12:00,37.0,31.0,-100.00,North,0,5.0,8.0,80,0.00,,,0.00,,2013-03-25 21:12:00,
2013-03-25 17:22:00,37.0,32.0,-100.00,North,0,6.0,8.0,81,0.00,,,0.00,,2013-03-25 21:22:00,
2013-03-25 17:33:00,36.0,30.0,-100.00,NNW,338,7.0,9.0,80,0.00,,,0.00,,2013-03-25 21:33:00,
2013-03-25 17:43:00,36.0,30.0,-100.00,NNW,338,7.0,9.0,80,0.00,,,0.00,,2013-03-25 21:43:00,
2013-03-25 17:52:00,37.0,31.0,-100.00,North,0,7.0,9.0,80,0.00,,,0.00,,2013-03-25 21:52:00,
2013-03-25 18:03:00,37.0,31.0,-100.00,North,0,5.0,7.0,80,0.00,,,0.00,,2013-03-25 22:03:00,
2013-03-25 18:12:00,37.0,31.0,-100.00,North,0,5.0,7.0,80,0.00,,,0.00,,2013-03-25 22:12:00,
2013-03-25 18:23:00,36.0,30.0,-100.00,NNW,338,5.0,6.0,80,0.00,,,0.00,,2013-03-25 22:23:00,
2013-03-25 18:33:00,36.0,31.0,-100.00,North,0,5.0,12.0,81,0.00,,,0.00,,2013-03-25 22:33:00,
2013-03-25 18:42:00,36.0,31.0,-100.00,North,0,5.0,12.0,81,0.00,,,0.00,,2013-03-25 22:42:00,
2013-03-25 18:52:00,36.0,31.0,-100.00,North,0,6.0,10.0,82,0.00,,,0.00,,2013-03-25 22:52:00,
2013-03-25 19:03:00,36.0,32.0,-100.00,NW,315,1.0,0.0,85,0.00,,,0.00,,2013-03-25 23:03:00,
2013-03-25 19:12:00,36.0,32.0,-100.00,NW,315,1.0,0.0,85,0.00,,,0.00,,2013-03-25 23:12:00,
2013-03-25 19:23:00,36.0,33.0,-100.00,NNW,338,6.0,12.0,88,0.00,,,0.00,,2013-03-25 23:23:00,
2013-03-25 19:32:00,35.0,32.0,-100.00,NNW,338,7.0,9.0,88,0.00,,,0.00,,2013-03-25 23:32:00,
2013-03-25 19:43:00,35.0,32.0,-100.00,NNW,338,7.0,9.0,88,0.00,,,0.00,,2013-03-25 23:43:00,
2013-03-25 19:52:00,35.0,32.0,-100.00,North,0,3.0,9.0,88,0.00,,,0.00,,2013-03-25 23:52:00,
2013-03-25 20:02:00,35.0,32.0,-100.00,NNE,23,2.0,3.0,87,0.00,,,0.00,,2013-03-26 00:02:00,
2013-03-25 20:12:00,35.0,32.0,-100.00,NNE,23,2.0,3.0,87,0.00,,,0.00,,2013-03-26 00:12:00,
2013-03-25 20:22:00,35.0,32.0,-100.00,North,0,1.0,5.0,87,0.00,,,0.00,,2013-03-26 00:22:00,
2013-03-25 20:32:00,35.0,31.0,-100.00,North,0,3.0,7.0,86,0.00,,,0.00,,2013-03-26 00:32:00,
2013-03-25 20:42:00,35.0,31.0,-100.00,North,0,3.0,7.0,86,0.00,,,0.00,,2013-03-26 00:42:00,
2013-03-25 20:52:00,35.0,31.0,-100.00,NNE,23,7.0,10.0,85,0.00,,,0.00,,2013-03-26 00:52:00,
2013-03-25 21:02:00,36.0,32.0,-100.00,North,0,5.0,8.0,84,0.00,,,0.00,,2013-03-26 01:02:00,
2013-03-25 21:12:00,36.0,32.0,-100.00,North,0,5.0,8.0,84,0.00,,,0.00,,2013-03-26 01:12:00,
2013-03-25 21:22:00,35.0,31.0,-100.00,NW,315,3.0,7.0,85,0.00,,,0.00,,2013-03-26 01:22:00,
2013-03-25 21:32:00,35.0,31.0,-100.00,NW,315,3.0,3.0,84,0.00,,,0.00,,2013-03-26 01:32:00,
2013-03-25 21:42:00,35.0,31.0,-100.00,NW,315,3.0,3.0,84,0.00,,,0.00,,2013-03-26 01:42:00,
2013-03-25 21:52:00,35.0,31.0,-100.00,WNW,293,2.0,6.0,84,0.00,,,0.00,,2013-03-26 01:52:00,
2013-03-25 22:02:00,36.0,31.0,-100.00,North,0,0.0,0.0,83,0.00,,,0.00,,2013-03-26 02:02:00,
2013-03-25 22:12:00,36.0,31.0,-100.00,North,0,0.0,0.0,83,0.00,,,0.00,,2013-03-26 02:12:00,
2013-03-25 22:22:00,36.0,31.0,-100.00,NNW,338,0.0,0.0,83,0.00,,,0.00,,2013-03-26 02:22:00,
2013-03-25 22:32:00,36.0,31.0,-100.00,NNW,338,3.0,7.0,82,0.00,,,0.00,,2013-03-26 02:32:00,
2013-03-25 22:42:00,36.0,31.0,-100.00,NNW,338,3.0,7.0,82,0.00,,,0.00,,2013-03-26 02:42:00,
2013-03-25 22:52:00,35.0,30.0,-100.00,NW,315,3.0,9.0,82,0.00,,,0.00,,2013-03-26 02:52:00,
2013-03-25 23:02:00,36.0,31.0,-100.00,North,0,0.0,0.0,82,0.00,,,0.00,,2013-03-26 03:02:00,
2013-03-25 23:12:00,36.0,31.0,-100.00,North,0,0.0,0.0,82,0.00,,,0.00,,2013-03-26 03:12:00,
2013-03-25 23:22:00,35.0,30.0,-100.00,NW,315,0.0,0.0,83,0.00,,,0.00,,2013-03-26 03:22:00,
2013-03-25 23:34:00,35.0,31.0,-100.00,NW,315,0.0,0.0,84,0.00,,,0.00,,2013-03-26 03:34:00,
2013-03-25 23:42:00,35.0,31.0,-100.00,NW,315,0.0,0.0,84,0.00,,,0.00,,2013-03-26 03:42:00,
2013-03-25 23:53:00,35.0,31.0,-100.00,NW,315,2.0,5.0,84,0.00,,,0.00,,2013-03-26 03:53:00,